sat.trackr.live / text

‹ back to catalog

KUIPER-00121

NORAD 65950 · 2025-228D

PAYLOAD ACTIVE UNKNOWN

§ Identity

Operator
Country
US
Launch date
2025-10-14
Launch site
AFETR
Launch vehicle
Mass (kg)
RCS (m²)

External: N2YO · Heavens-Above · Gunter

§ Orbital elements

Epoch: 2026-05-25T01:06:07.871616Z

Period
97.30 min
Inclination
51.9011°
Eccentricity
0.0001147
Mean motion
14.79943666 rev/d
Perigee alt
628.7 km
Apogee alt
630.3 km
Semi-major
7,007.6 km
B*
4.8513e-4
RAAN
15.4423°
Arg perigee
103.7016°
Mean anomaly
256.4074°
Rev number
3,464

§ Raw data

KUIPER-001211 65950U 25228D   26145.04592444  .00003480  00000+0  48513-3 0  99922 65950  51.9011  15.4423 0001147 103.7016 256.4074 14.79943666 34644

JSON: /api/v1/satellites/65950 · /tle

For live sub-satellite position, see the globe view (requires WebGL).

§ Visibility from observer

Set your observer location to see the next 7 days of passes ≥ 10°. The values pass through the URL so the page stays shareable.

No JS? Fill the form by hand. The geolocation button needs JavaScript.